DAL179 DBBB-FTTJ

Flight info

Callsign DAL179
Flight time 1h 52m
Altitude 37000
Route POLTO UL433 LAG UR778 KELIG UW951 GURAP UJ332 JOS UG626 MIU UG660 KELAK
Aircraft B77W/H-SDE1E2E3FGHIJ2J3J4J5M1RWXY/LB1D1

Departure

Time 2026-04-21 14:43
Airport Cotonou Cadjehoun International Airport (DBBB)

Arrival

Time 2026-04-21 16:35
Airport N'Djamena International Airport (FTTJ)
Time Latitude Longitude Altitude Speed Heading
2026-04-21 14:14 6.35519 2.38541 29 ft 0 kts 75°
2026-04-21 14:36 6.35519 2.38542 29 ft 1 kts 75°
2026-04-21 14:36 6.35524 2.38552 29 ft 2 kts 57°
2026-04-21 14:36 6.35535 2.38555 29 ft 2 kts
2026-04-21 14:37 6.35545 2.38547 29 ft 2 kts 313°
2026-04-21 14:37 6.35547 2.38531 29 ft 3 kts 268°
2026-04-21 14:37 6.35542 2.38502 29 ft 5 kts 252°
2026-04-21 14:37 6.35527 2.38465 29 ft 6 kts 250°
2026-04-21 14:38 6.35527 2.38426 29 ft 6 kts 307°
2026-04-21 14:38 6.35563 2.38390 28 ft 8 kts 317°
2026-04-21 14:38 6.35618 2.38362 29 ft 9 kts 355°
2026-04-21 14:38 6.35675 2.38390 30 ft 10 kts 41°
2026-04-21 14:39 6.35724 2.38448 30 ft 13 kts 51°
2026-04-21 14:39 6.35787 2.38529 30 ft 17 kts 53°
2026-04-21 14:39 6.35864 2.38631 29 ft 19 kts 52°
2026-04-21 14:39 6.35945 2.38738 29 ft 19 kts 52°
2026-04-21 14:40 6.36027 2.38844 26 ft 19 kts 52°
2026-04-21 14:40 6.36107 2.38952 30 ft 19 kts 54°
2026-04-21 14:40 6.36186 2.39060 28 ft 19 kts 52°
2026-04-21 14:40 6.36268 2.39166 28 ft 19 kts 53°
2026-04-21 14:41 6.36310 2.39233 30 ft 10 kts 78°
2026-04-21 14:41 6.36302 2.39279 28 ft 1 kts 104°
2026-04-21 14:41 6.36304 2.39293 30 ft 3 kts 68°
2026-04-21 14:41 6.36322 2.39311 30 ft 5 kts 26°
2026-04-21 14:42 6.36348 2.39295 32 ft 5 kts 281°
2026-04-21 14:42 6.36317 2.39237 30 ft 23 kts 236°
2026-04-21 14:42 6.36047 2.38883 32 ft 105 kts 233°
2026-04-21 14:42 6.35457 2.38106 44 ft 169 kts 232°
2026-04-21 14:43 6.34667 2.37226 726 ft 171 kts 212°
2026-04-21 14:43 6.33498 2.37043 1314 ft 182 kts 162°
2026-04-21 14:43 6.32525 2.37863 1831 ft 198 kts 118°
2026-04-21 14:43 6.32344 2.39311 2056 ft 228 kts 76°
2026-04-21 14:44 6.33217 2.40731 2297 ft 254 kts 43°
2026-04-21 14:44 6.34569 2.41967 2735 ft 270 kts 45°
2026-04-21 14:44 6.35830 2.43385 3586 ft 272 kts 52°
2026-04-21 14:44 6.36905 2.44900 4626 ft 268 kts 58°
2026-04-21 14:45 6.37849 2.46496 5645 ft 265 kts 62°
2026-04-21 14:45 6.38696 2.48143 6514 ft 267 kts 64°
2026-04-21 14:45 6.39488 2.49848 7335 ft 270 kts 66°
2026-04-21 14:45 6.40235 2.51578 8169 ft 270 kts 68°
2026-04-21 14:46 6.40953 2.53328 9035 ft 272 kts 69°
2026-04-21 14:46 6.41657 2.55099 9853 ft 273 kts 69°
2026-04-21 14:46 6.42362 2.56910 10391 ft 288 kts 70°
2026-04-21 14:46 6.43117 2.58879 10574 ft 315 kts 70°
2026-04-21 14:47 6.43931 2.61021 10885 ft 336 kts 70°
2026-04-21 14:47 6.44776 2.63253 11549 ft 347 kts 70°
2026-04-21 14:47 6.45641 2.65546 12370 ft 354 kts 70°
2026-04-21 14:47 6.46518 2.67872 13268 ft 358 kts 70°
2026-04-21 14:48 6.47405 2.70229 14116 ft 363 kts 70°
2026-04-21 14:48 6.48306 2.72621 14884 ft 369 kts 70°
2026-04-21 14:48 6.49221 2.75051 15682 ft 374 kts 70°
2026-04-21 14:48 6.50147 2.77515 16432 ft 380 kts 70°
2026-04-21 14:49 6.51087 2.80021 17192 ft 385 kts 70°
2026-04-21 14:49 6.52039 2.82560 17938 ft 391 kts 70°
2026-04-21 14:49 6.53005 2.85138 18616 ft 396 kts 70°
2026-04-21 14:49 6.53983 2.87748 19261 ft 401 kts 70°
2026-04-21 14:50 6.54637 2.89495 19696 ft 405 kts 70°
2026-04-21 14:50 6.55973 2.93061 20564 ft 411 kts 70°
2026-04-21 14:50 6.56974 2.95733 21177 ft 416 kts 70°
2026-04-21 14:50 6.58012 2.98506 21817 ft 421 kts 70°
2026-04-21 14:51 6.59036 3.01240 22439 ft 425 kts 70°
2026-04-21 14:51 6.60083 3.04037 23057 ft 429 kts 70°
2026-04-21 14:51 6.61153 3.06896 23652 ft 433 kts 70°
2026-04-21 14:51 6.62205 3.09708 24142 ft 437 kts 70°
2026-04-21 14:52 6.63281 3.12584 24647 ft 441 kts 69°
2026-04-21 14:52 6.64371 3.15495 25068 ft 447 kts 69°
2026-04-21 14:52 6.65471 3.18438 25513 ft 452 kts 69°
2026-04-21 14:52 6.66584 3.21414 25955 ft 457 kts 68°
2026-04-21 14:53 6.67709 3.24423 26388 ft 462 kts 68°
2026-04-21 14:53 6.68847 3.27467 26828 ft 467 kts 68°
2026-04-21 14:53 6.70148 3.30467 27265 ft 470 kts 60°
2026-04-21 14:53 6.71863 3.33275 27723 ft 472 kts 53°
2026-04-21 14:54 6.73893 3.35874 28166 ft 474 kts 45°
2026-04-21 14:54 6.76215 3.38233 28632 ft 476 kts 42°
2026-04-21 14:54 6.78606 3.40555 29050 ft 480 kts 41°
2026-04-21 14:54 6.81024 3.42890 29491 ft 483 kts 41°
2026-04-21 14:55 6.83449 3.45242 29932 ft 486 kts 41°
2026-04-21 14:55 6.85881 3.47619 30288 ft 490 kts 42°
2026-04-21 14:55 6.88328 3.50027 30628 ft 493 kts 42°
2026-04-21 14:55 6.90782 3.52454 30957 ft 497 kts 42°
2026-04-21 14:56 6.93252 3.54902 31283 ft 499 kts 43°
2026-04-21 14:56 6.95733 3.57362 31586 ft 502 kts 43°
2026-04-21 14:56 6.98225 3.59835 31901 ft 504 kts 43°
2026-04-21 14:56 7.00727 3.62316 32290 ft 504 kts 43°
2026-04-21 14:57 7.03223 3.64790 32718 ft 503 kts 43°
2026-04-21 14:57 7.05714 3.67260 33155 ft 503 kts 43°
2026-04-21 14:57 7.08207 3.69731 33574 ft 502 kts 43°
2026-04-21 14:57 7.10698 3.72201 33960 ft 502 kts 44°
2026-04-21 14:58 7.13184 3.74666 34325 ft 501 kts 44°
2026-04-21 14:58 7.15662 3.77123 34736 ft 499 kts 44°
2026-04-21 14:58 7.18128 3.79569 35170 ft 497 kts 44°
2026-04-21 14:58 7.20584 3.82006 35602 ft 494 kts 43°
2026-04-21 14:59 7.23022 3.84426 36044 ft 491 kts 43°
2026-04-21 14:59 7.25449 3.86835 36439 ft 489 kts 43°
2026-04-21 14:59 7.27874 3.89241 36760 ft 490 kts 43°
2026-04-21 15:00 7.32762 3.94094 36839 ft 494 kts 43°
2026-04-21 15:00 7.37528 3.99026 36821 ft 489 kts 49°
2026-04-21 15:01 7.41488 4.04512 36828 ft 487 kts 52°
2026-04-21 15:01 7.45842 4.09711 36832 ft 486 kts 47°
2026-04-21 15:02 7.50357 4.14785 36829 ft 487 kts 47°
2026-04-21 15:02 7.54838 4.19914 36823 ft 488 kts 47°
2026-04-21 15:03 7.59303 4.25098 36820 ft 491 kts 47°
2026-04-21 15:03 7.63788 4.30315 36830 ft 494 kts 47°
2026-04-21 15:04 7.68300 4.35558 36825 ft 496 kts 47°
2026-04-21 15:04 7.72809 4.40831 36817 ft 498 kts 50°
2026-04-21 15:05 7.76658 4.46644 36815 ft 500 kts 59°
2026-04-21 15:05 7.81689 4.55850 36811 ft 499 kts 59°
2026-04-21 15:06 7.85062 4.61964 36813 ft 498 kts 59°
2026-04-21 15:06 7.88448 4.68047 36807 ft 497 kts 59°
2026-04-21 15:07 7.91811 4.74079 36807 ft 496 kts 59°
2026-04-21 15:07 7.95189 4.80146 36806 ft 496 kts 59°
2026-04-21 15:08 7.98571 4.86227 36808 ft 498 kts 59°
2026-04-21 15:08 8.01961 4.92323 36800 ft 499 kts 59°
2026-04-21 15:09 8.04813 4.97455 36802 ft 501 kts 59°
2026-04-21 15:09 8.08202 5.03555 36794 ft 502 kts 59°
2026-04-21 15:10 8.11614 5.09700 36791 ft 502 kts 59°
2026-04-21 15:10 8.15027 5.15842 36793 ft 501 kts 59°
2026-04-21 15:11 8.18440 5.21972 36767 ft 501 kts 59°
2026-04-21 15:11 8.21850 5.28099 36768 ft 500 kts 59°
2026-04-21 15:12 8.25255 5.34224 36758 ft 499 kts 59°
2026-04-21 15:12 8.28652 5.40337 36757 ft 499 kts 59°
2026-04-21 15:13 8.32041 5.46440 36748 ft 499 kts 59°
2026-04-21 15:13 8.35436 5.52555 36736 ft 499 kts 59°
2026-04-21 15:14 8.38830 5.58673 36740 ft 500 kts 59°
2026-04-21 15:14 8.42208 5.64763 36734 ft 501 kts 59°
2026-04-21 15:15 8.45613 5.70906 36728 ft 502 kts 59°
2026-04-21 15:15 8.49021 5.77056 36726 ft 502 kts 59°
2026-04-21 15:16 8.52425 5.83203 36717 ft 501 kts 59°
2026-04-21 15:16 8.55824 5.89346 36721 ft 500 kts 59°
2026-04-21 15:17 8.59204 5.95489 36719 ft 500 kts 59°
2026-04-21 15:17 8.62568 6.01625 36711 ft 499 kts 59°
2026-04-21 15:18 8.65932 6.07760 36708 ft 499 kts 59°
2026-04-21 15:18 8.69294 6.13891 36703 ft 499 kts 59°
2026-04-21 15:19 8.72658 6.20027 36709 ft 499 kts 59°
2026-04-21 15:19 8.76002 6.26128 36708 ft 500 kts 59°
2026-04-21 15:20 8.79412 6.32262 36709 ft 500 kts 59°
2026-04-21 15:20 8.82839 6.38397 36707 ft 501 kts 59°
2026-04-21 15:21 8.86260 6.44545 36707 ft 502 kts 59°
2026-04-21 15:21 8.89689 6.50690 36702 ft 502 kts 59°
2026-04-21 15:22 8.93144 6.56834 36712 ft 502 kts 59°
2026-04-21 15:22 8.96598 6.62977 36714 ft 503 kts 59°
2026-04-21 15:23 9.00051 6.69131 36709 ft 503 kts 59°
2026-04-21 15:23 9.03503 6.75288 36721 ft 503 kts 59°
2026-04-21 15:24 9.06957 6.81454 36715 ft 504 kts 58°
2026-04-21 15:24 9.10415 6.87628 36713 ft 504 kts 59°
2026-04-21 15:25 9.13873 6.93805 36723 ft 505 kts 59°
2026-04-21 15:25 9.17314 6.99956 36727 ft 506 kts 59°
2026-04-21 15:26 9.20780 7.06154 36730 ft 506 kts 59°
2026-04-21 15:26 9.24249 7.12361 36729 ft 507 kts 59°
2026-04-21 15:27 9.27720 7.18575 36735 ft 507 kts 59°
2026-04-21 15:27 9.31189 7.24789 36731 ft 507 kts 59°
2026-04-21 15:28 9.34369 7.31152 36737 ft 508 kts 67°
2026-04-21 15:28 9.36415 7.37997 36732 ft 509 kts 78°
2026-04-21 15:29 9.37739 7.45041 36741 ft 509 kts 79°
2026-04-21 15:29 9.39038 7.52088 36737 ft 510 kts 78°
2026-04-21 15:30 9.40380 7.59139 36740 ft 510 kts 78°
2026-04-21 15:30 9.41744 7.66198 36736 ft 511 kts 78°
2026-04-21 15:31 9.43112 7.73278 36737 ft 513 kts 78°
2026-04-21 15:31 9.44470 7.80327 36739 ft 514 kts 78°
2026-04-21 15:32 9.45837 7.87443 36733 ft 515 kts 78°
2026-04-21 15:32 9.47204 7.94563 36733 ft 515 kts 78°
2026-04-21 15:33 9.48570 8.01683 36731 ft 515 kts 78°
2026-04-21 15:33 9.49878 8.08510 36736 ft 515 kts 78°
2026-04-21 15:34 9.51240 8.15629 36735 ft 514 kts 78°
2026-04-21 15:34 9.52601 8.22747 36738 ft 514 kts 78°
2026-04-21 15:35 9.53948 8.29852 36742 ft 514 kts 78°
2026-04-21 15:35 9.55291 8.36964 36738 ft 513 kts 78°
2026-04-21 15:36 9.56629 8.44055 36744 ft 512 kts 78°
2026-04-21 15:36 9.57966 8.51141 36757 ft 512 kts 78°
2026-04-21 15:37 9.59290 8.58171 36755 ft 511 kts 78°
2026-04-21 15:37 9.60621 8.65240 36776 ft 511 kts 78°
2026-04-21 15:38 9.61949 8.72307 36773 ft 511 kts 78°
2026-04-21 15:38 9.63282 8.79375 36789 ft 510 kts 77°
2026-04-21 15:39 9.65360 8.86223 36789 ft 508 kts 66°
2026-04-21 15:39 9.68514 8.92604 36795 ft 506 kts 59°
2026-04-21 15:40 9.71922 8.98841 36799 ft 506 kts 59°
2026-04-21 15:40 9.75307 9.05120 36786 ft 508 kts 59°
2026-04-21 15:41 9.78671 9.11437 36773 ft 510 kts 59°
2026-04-21 15:41 9.82041 9.17780 36779 ft 512 kts 59°
2026-04-21 15:42 9.85421 9.24139 36763 ft 513 kts 59°
2026-04-21 15:42 9.88810 9.30506 36753 ft 513 kts 59°
2026-04-21 15:43 9.92187 9.36823 36757 ft 513 kts 59°
2026-04-21 15:43 9.95585 9.43181 36737 ft 512 kts 59°
2026-04-21 15:44 9.98972 9.49529 36742 ft 511 kts 59°
2026-04-21 15:44 10.02347 9.55860 36719 ft 509 kts 59°
2026-04-21 15:45 10.05711 9.62174 36720 ft 508 kts 59°
2026-04-21 15:45 10.09063 9.68471 36725 ft 507 kts 59°
2026-04-21 15:46 10.12413 9.74762 36714 ft 506 kts 58°
2026-04-21 15:46 10.15758 9.81049 36712 ft 506 kts 59°
2026-04-21 15:47 10.19102 9.87337 36708 ft 506 kts 59°
2026-04-21 15:47 10.22443 9.93626 36714 ft 506 kts 59°
2026-04-21 15:48 10.25788 9.99926 36705 ft 507 kts 59°
2026-04-21 15:48 10.29115 10.06195 36704 ft 507 kts 59°
2026-04-21 15:49 10.32465 10.12511 36705 ft 508 kts 59°
2026-04-21 15:49 10.35815 10.18830 36701 ft 508 kts 59°
2026-04-21 15:50 10.39162 10.25146 36702 ft 508 kts 59°
2026-04-21 15:50 10.42506 10.31464 36697 ft 508 kts 59°
2026-04-21 15:51 10.45851 10.37784 36688 ft 508 kts 59°
2026-04-21 15:51 10.49193 10.44102 36691 ft 508 kts 59°
2026-04-21 15:52 10.52535 10.50427 36690 ft 508 kts 59°
2026-04-21 15:52 10.55878 10.56757 36682 ft 508 kts 59°
2026-04-21 15:53 10.59217 10.63081 36694 ft 507 kts 59°
2026-04-21 15:53 10.62553 10.69401 36687 ft 507 kts 59°
2026-04-21 15:54 10.65883 10.75716 36691 ft 506 kts 59°
2026-04-21 15:54 10.69205 10.82021 36688 ft 506 kts 59°
2026-04-21 15:55 10.72526 10.88326 36692 ft 506 kts 59°
2026-04-21 15:55 10.75812 10.94595 36691 ft 506 kts 59°
2026-04-21 15:56 10.79108 11.00907 36686 ft 506 kts 59°
2026-04-21 15:56 10.82405 11.07225 36689 ft 506 kts 59°
2026-04-21 15:57 10.85702 11.13545 36692 ft 506 kts 59°
2026-04-21 15:57 10.88998 11.19864 36695 ft 506 kts 59°
2026-04-21 15:58 10.92297 11.26191 36687 ft 506 kts 59°
2026-04-21 15:58 10.95594 11.32520 36681 ft 506 kts 60°
2026-04-21 15:59 10.98893 11.38855 36688 ft 507 kts 60°
2026-04-21 15:59 11.02192 11.45196 36687 ft 507 kts 60°
2026-04-21 16:00 11.05491 11.51541 36691 ft 507 kts 60°
2026-04-21 16:00 11.08235 11.56821 36703 ft 508 kts 59°
2026-04-21 16:01 11.11540 11.63185 36689 ft 509 kts 59°
2026-04-21 16:01 11.14848 11.69555 36684 ft 509 kts 59°
2026-04-21 16:02 11.18154 11.75928 36693 ft 509 kts 59°
2026-04-21 16:02 11.21462 11.82310 36694 ft 510 kts 59°
2026-04-21 16:03 11.24770 11.88696 36693 ft 510 kts 59°
2026-04-21 16:03 11.28078 11.95085 36698 ft 510 kts 59°
2026-04-21 16:04 11.31247 12.01211 36697 ft 510 kts 59°
2026-04-21 16:04 11.34552 12.07601 36706 ft 509 kts 60°
2026-04-21 16:05 11.37851 12.13985 36700 ft 509 kts 60°
2026-04-21 16:05 11.41145 12.20364 36703 ft 508 kts 60°
2026-04-21 16:06 11.44433 12.26736 36705 ft 508 kts 59°
2026-04-21 16:06 11.47726 12.33119 36707 ft 509 kts 59°
2026-04-21 16:07 11.50998 12.39466 36703 ft 509 kts 59°
2026-04-21 16:07 11.54288 12.45855 36709 ft 509 kts 59°
2026-04-21 16:08 11.59219 12.55438 36703 ft 508 kts 59°
2026-04-21 16:09 11.62499 12.61817 36697 ft 508 kts 59°
2026-04-21 16:09 11.65778 12.68196 36701 ft 507 kts 59°
2026-04-21 16:10 11.69049 12.74568 36694 ft 504 kts 59°
2026-04-21 16:10 11.70663 12.77713 36534 ft 498 kts 60°
2026-04-21 16:10 11.72264 12.80834 36076 ft 495 kts 60°
2026-04-21 16:10 11.73853 12.83935 35679 ft 490 kts 60°
2026-04-21 16:11 11.75427 12.87005 35274 ft 486 kts 58°
2026-04-21 16:11 11.76987 12.90049 34820 ft 483 kts 58°
2026-04-21 16:11 11.78539 12.93079 34371 ft 480 kts 58°
2026-04-21 16:11 11.80083 12.96091 33922 ft 478 kts 57°
2026-04-21 16:12 11.81619 12.99088 33446 ft 475 kts 57°
2026-04-21 16:12 11.83145 13.02068 32974 ft 472 kts 57°
2026-04-21 16:12 11.84657 13.05023 32529 ft 468 kts 58°
2026-04-21 16:12 11.86024 13.08036 32077 ft 469 kts 65°
2026-04-21 16:13 11.87069 13.11185 31653 ft 468 kts 70°
2026-04-21 16:13 11.87836 13.14411 31224 ft 467 kts 77°
2026-04-21 16:13 11.88333 13.17676 30803 ft 464 kts 79°
2026-04-21 16:13 11.88782 13.20930 30384 ft 462 kts 79°
2026-04-21 16:14 11.89219 13.24170 29951 ft 460 kts 80°
2026-04-21 16:14 11.89651 13.27354 29485 ft 457 kts 80°
2026-04-21 16:14 11.90094 13.30557 29018 ft 454 kts 80°
2026-04-21 16:14 11.90540 13.33728 28571 ft 450 kts 80°
2026-04-21 16:15 11.90986 13.36874 28142 ft 446 kts 80°
2026-04-21 16:15 11.91432 13.39992 27712 ft 442 kts 81°
2026-04-21 16:15 11.91874 13.43082 27279 ft 438 kts 81°
2026-04-21 16:15 11.92313 13.46146 26854 ft 434 kts 81°
2026-04-21 16:16 11.92749 13.49189 26428 ft 431 kts 81°
2026-04-21 16:16 11.93180 13.52205 25999 ft 428 kts 81°
2026-04-21 16:16 11.93607 13.55195 25567 ft 425 kts 82°
2026-04-21 16:16 11.94032 13.58173 25127 ft 422 kts 82°
2026-04-21 16:17 11.94454 13.61133 24682 ft 420 kts 82°
2026-04-21 16:17 11.94873 13.64079 24243 ft 418 kts 83°
2026-04-21 16:17 11.95289 13.67006 23790 ft 416 kts 83°
2026-04-21 16:17 11.95703 13.69920 23339 ft 413 kts 83°
2026-04-21 16:18 11.96114 13.72819 22810 ft 411 kts 83°
2026-04-21 16:18 11.96522 13.75697 22325 ft 408 kts 83°
2026-04-21 16:18 11.96925 13.78540 21851 ft 396 kts 83°
2026-04-21 16:18 11.97309 13.81234 21391 ft 372 kts 83°
2026-04-21 16:19 11.97671 13.83781 20996 ft 358 kts 83°
2026-04-21 16:19 11.98026 13.86289 20610 ft 356 kts 83°
2026-04-21 16:19 11.98378 13.88791 20212 ft 354 kts 83°
2026-04-21 16:19 11.98724 13.91243 19815 ft 353 kts 83°
2026-04-21 16:20 11.99073 13.93719 19409 ft 352 kts 83°
2026-04-21 16:20 11.99421 13.96190 18996 ft 351 kts 83°
2026-04-21 16:20 11.99769 13.98660 18578 ft 351 kts 83°
2026-04-21 16:20 12.00115 14.01123 18169 ft 350 kts 83°
2026-04-21 16:21 12.00462 14.03583 17718 ft 350 kts 83°
2026-04-21 16:21 12.00807 14.06040 17279 ft 348 kts 83°
2026-04-21 16:21 12.01150 14.08480 16864 ft 346 kts 83°
2026-04-21 16:21 12.01492 14.10910 16452 ft 344 kts 82°
2026-04-21 16:22 12.01831 14.13324 16049 ft 342 kts 82°
2026-04-21 16:22 12.02167 14.15720 15649 ft 340 kts 82°
2026-04-21 16:22 12.02502 14.18107 15251 ft 338 kts 82°
2026-04-21 16:22 12.02834 14.20478 14853 ft 337 kts 82°
2026-04-21 16:23 12.03165 14.22836 14462 ft 335 kts 82°
2026-04-21 16:23 12.03487 14.25136 14042 ft 317 kts 82°
2026-04-21 16:23 12.03792 14.27320 13698 ft 309 kts 82°
2026-04-21 16:23 12.04096 14.29495 13302 ft 309 kts 82°
2026-04-21 16:24 12.04400 14.31664 12918 ft 308 kts 82°
2026-04-21 16:24 12.04702 14.33826 12540 ft 307 kts 82°
2026-04-21 16:24 12.05003 14.35981 12172 ft 306 kts 82°
2026-04-21 16:24 12.05302 14.38125 11807 ft 304 kts 82°
2026-04-21 16:25 12.05599 14.40261 11450 ft 303 kts 82°
2026-04-21 16:25 12.05895 14.42386 11094 ft 302 kts 82°
2026-04-21 16:25 12.06191 14.44509 10734 ft 301 kts 82°
2026-04-21 16:25 12.06485 14.46624 10374 ft 301 kts 82°
2026-04-21 16:26 12.06779 14.48736 10075 ft 298 kts 82°
2026-04-21 16:26 12.07066 14.50801 9947 ft 289 kts 82°
2026-04-21 16:26 12.07340 14.52769 9801 ft 272 kts 82°
2026-04-21 16:26 12.07602 14.54655 9609 ft 267 kts 82°
2026-04-21 16:27 12.07862 14.56534 9292 ft 267 kts 82°
2026-04-21 16:27 12.08125 14.58428 8983 ft 270 kts 82°
2026-04-21 16:27 12.08388 14.60325 8691 ft 268 kts 82°
2026-04-21 16:27 12.08644 14.62174 8566 ft 258 kts 82°
2026-04-21 16:28 12.08583 14.63937 8312 ft 252 kts 106°
2026-04-21 16:28 12.07958 14.65613 8065 ft 256 kts 109°
2026-04-21 16:28 12.07317 14.67335 7777 ft 263 kts 109°
2026-04-21 16:28 12.06673 14.69090 7473 ft 264 kts 108°
2026-04-21 16:29 12.06022 14.70865 7137 ft 263 kts 108°
2026-04-21 16:29 12.05393 14.72580 6831 ft 259 kts 108°
2026-04-21 16:29 12.04760 14.74305 6536 ft 259 kts 108°
2026-04-21 16:29 12.04127 14.76030 6217 ft 259 kts 108°
2026-04-21 16:30 12.03495 14.77750 5912 ft 259 kts 107°
2026-04-21 16:30 12.02863 14.79475 5583 ft 260 kts 108°
2026-04-21 16:30 12.02229 14.81205 5264 ft 260 kts 108°
2026-04-21 16:30 12.01593 14.82936 4960 ft 261 kts 108°
2026-04-21 16:31 12.00967 14.84635 4616 ft 251 kts 107°
2026-04-21 16:31 12.00355 14.86297 4403 ft 248 kts 108°
2026-04-21 16:31 11.99986 14.87946 4252 ft 231 kts 83°
2026-04-21 16:31 12.00477 14.89431 4078 ft 217 kts 52°
2026-04-21 16:32 12.01377 14.90595 4051 ft 203 kts 50°
2026-04-21 16:32 12.02285 14.91703 3792 ft 204 kts 47°
2026-04-21 16:32 12.03250 14.92750 3555 ft 200 kts 45°
2026-04-21 16:32 12.04209 14.93760 3318 ft 195 kts 45°
2026-04-21 16:33 12.05140 14.94739 3067 ft 190 kts 45°
2026-04-21 16:33 12.06024 14.95670 2814 ft 182 kts 45°
2026-04-21 16:33 12.06872 14.96557 2619 ft 173 kts 44°
2026-04-21 16:33 12.07745 14.97474 2265 ft 185 kts 45°
2026-04-21 16:34 12.08600 14.98381 1983 ft 169 kts 44°
2026-04-21 16:34 12.09384 14.99208 1762 ft 149 kts 44°
2026-04-21 16:34 12.10100 14.99963 1582 ft 148 kts 43°
2026-04-21 16:34 12.10822 15.00724 1375 ft 149 kts 44°
2026-04-21 16:35 12.11552 15.01500 1268 ft 157 kts 43°
2026-04-21 16:35 12.12314 15.02295 1038 ft 156 kts 45°
2026-04-21 16:35 12.13019 15.03028 990 ft 126 kts 45°
2026-04-21 16:35 12.13467 15.03498 989 ft 37 kts 45°
2026-04-21 16:36 12.13492 15.03589 986 ft 7 kts 132°
2026-04-21 16:36 12.13458 15.03627 989 ft 8 kts 133°
2026-04-21 16:36 12.13408 15.03651 990 ft 9 kts 197°
2026-04-21 16:36 12.13350 15.03631 989 ft 9 kts 203°
2026-04-21 16:37 12.13299 15.03592 990 ft 10 kts 222°
2026-04-21 16:37 12.13249 15.03539 990 ft 11 kts 227°
2026-04-21 16:37 12.13197 15.03481 985 ft 11 kts 228°
2026-04-21 16:37 12.13147 15.03421 990 ft 11 kts 231°
2026-04-21 16:38 12.13121 15.03389 988 ft 1 kts 227°
2026-04-21 16:38 12.13113 15.03381 990 ft 2 kts 224°
2026-04-21 16:38 12.13099 15.03368 987 ft 4 kts 223°
2026-04-21 16:38 12.13073 15.03343 985 ft 5 kts 223°
2026-04-21 16:39 12.13040 15.03338 986 ft 6 kts 139°
2026-04-21 16:39 12.13019 15.03357 980 ft 0 kts 139°